• In Uzbekistan
  • List of Countries
  • For 7 days
  • Water Temperature
  • Satellite Maps
  • Weather Map
  • Weather Widgets
  • user-avatar
    Login

    Hourly Weather Enev

    Today, 23 October, Tuesday

    Time Temperature Precipitation Wind Pressure Humidity
    00:00 +21°C° 0 mm 2 mps 741 mmHg 24%
    01:00 +20°C° 0 mm 2 mps 741 mmHg 25%
    02:00 +20°C° 0 mm 2 mps 741 mmHg 26%
    03:00 +20°C° 0 mm 2 mps 741 mmHg 26%
    04:00 +19°C° 0 mm 2 mps 741 mmHg 26%
    05:00 +19°C° 0 mm 2 mps 741 mmHg 27%
    06:00 +19°C° 0 mm 2 mps 741 mmHg 27%
    07:00 +19°C° 0 mm 2 mps 741 mmHg 28%
    08:00 +21°C° 0 mm 2 mps 741 mmHg 25%
    09:00 +24°C° 0 mm 2 mps 741 mmHg 22%
    10:00 +25°C° 0 mm 2 mps 742 mmHg 20%
    11:00 +26°C° 0 mm 2 mps 742 mmHg 19%
    12:00 +27°C° 0 mm 2 mps 742 mmHg 19%
    13:00 +28°C° 0 mm 2 mps 741 mmHg 18%
    14:00 +27°C° 0 mm 2 mps 741 mmHg 18%
    15:00 +27°C° 0 mm 2 mps 741 mmHg 19%
    16:00 +27°C° 0 mm 2 mps 741 mmHg 20%
    17:00 +26°C° 0 mm 2 mps 741 mmHg 21%
    18:00 +25°C° 0 mm 1 mps 741 mmHg 23%
    19:00 +24°C° 0 mm 1 mps 741 mmHg 24%
    20:00 +23°C° 0 mm 1 mps 741 mmHg 25%
    21:00 +23°C° 0 mm 1 mps 741 mmHg 25%
    22:00 +22°C° 0 mm 1 mps 741 mmHg 26%
    23:00 +22°C° 0 mm 1 mps 741 mmHg 27%

    Tomorrow, 24 October, Wednesday

    Time Temperature Precipitation Wind Pressure Humidity
    00:00 +22°C° 0 mm 1 mps 740 mmHg 28%
    01:00 +21°C° 0 mm 1 mps 740 mmHg 29%
    02:00 +21°C° 0 mm 1 mps 740 mmHg 30%
    03:00 +20°C° 0 mm 1 mps 740 mmHg 31%
    04:00 +20°C° 0 mm 1 mps 740 mmHg 32%
    05:00 +20°C° 0 mm 1 mps 740 mmHg 32%
    06:00 +20°C° 0 mm 1 mps 740 mmHg 33%
    07:00 +20°C° 0 mm 1 mps 740 mmHg 33%
    08:00 +22°C° 0 mm 1 mps 740 mmHg 31%
    09:00 +24°C° 0 mm 1 mps 740 mmHg 28%
    10:00 +26°C° 0 mm 1 mps 740 mmHg 25%
    11:00 +27°C° 0 mm 1 mps 740 mmHg 25%
    12:00 +27°C° 0 mm 1 mps 740 mmHg 24%
    13:00 +28°C° 0 mm 1 mps 739 mmHg 23%
    14:00 +28°C° 0 mm 1 mps 739 mmHg 23%
    15:00 +28°C° 0 mm 2 mps 739 mmHg 22%
    16:00 +28°C° 0 mm 2 mps 738 mmHg 22%
    17:00 +27°C° 0 mm 2 mps 738 mmHg 23%
    18:00 +26°C° 0 mm 2 mps 738 mmHg 25%
    19:00 +25°C° 0 mm 2 mps 738 mmHg 26%
    20:00 +24°C° 0 mm 2 mps 738 mmHg 26%
    21:00 +24°C° 0 mm 2 mps 738 mmHg 26%
    22:00 +24°C° 0 mm 3 mps 738 mmHg 26%
    23:00 +22°C° 0 mm 3 mps 738 mmHg 27%

    Day after tomorrow, 25 October, Thursday

    Time Temperature Precipitation Wind Pressure Humidity
    00:00 +22°C° 0 mm 3 mps 738 mmHg 28%
    01:00 +22°C° 0 mm 3 mps 737 mmHg 28%
    02:00 +21°C° 0 mm 3 mps 737 mmHg 29%
    03:00 +21°C° 0 mm 3 mps 737 mmHg 30%
    04:00 +21°C° 0 mm 3 mps 736 mmHg 31%
    05:00 +21°C° 0 mm 3 mps 736 mmHg 31%
    06:00 +21°C° 0 mm 3 mps 736 mmHg 31%
    07:00 +21°C° 0 mm 3 mps 736 mmHg 32%
    08:00 +24°C° 0 mm 3 mps 736 mmHg 28%
    09:00 +27°C° 0 mm 3 mps 737 mmHg 25%
    10:00 +29°C° 0 mm 3 mps 737 mmHg 21%
    11:00 +30°C° 0 mm 3 mps 736 mmHg 20%
    12:00 +31°C° 0 mm 3 mps 736 mmHg 18%
    13:00 +33°C° 0 mm 3 mps 735 mmHg 16%
    14:00 +34°C° 0 mm 3 mps 735 mmHg 16%
    15:00 +34°C° 0 mm 3 mps 735 mmHg 16%
    16:00 +34°C° 0 mm 3 mps 735 mmHg 17%
    17:00 +31°C° 0 mm 3 mps 735 mmHg 19%
    18:00 +30°C° 0 mm 3 mps 735 mmHg 21%
    19:00 +28°C° 0 mm 3 mps 735 mmHg 23%
    20:00 +28°C° 0 mm 3 mps 735 mmHg 23%
    21:00 +27°C° 0 mm 3 mps 735 mmHg 24%
    22:00 +27°C° 0 mm 4 mps 736 mmHg 25%
    23:00 +27°C° 0 mm 4 mps 735 mmHg 25%

    26 October, Friday

    Time Temperature Precipitation Wind Pressure Humidity
    00:00 +27°C° 0 mm 4 mps 735 mmHg 26%
    01:00 +26°C° 0 mm 4 mps 735 mmHg 26%
    02:00 +26°C° 0 mm 4 mps 735 mmHg 27%
    03:00 +26°C° 0 mm 4 mps 735 mmHg 28%
    04:00 +25°C° 0 mm 4 mps 735 mmHg 28%
    05:00 +25°C° 0 mm 4 mps 735 mmHg 28%
    06:00 +26°C° 0 mm 4 mps 735 mmHg 28%
    07:00 +26°C° 0 mm 4 mps 735 mmHg 28%
    08:00 +28°C° 0 mm 4 mps 735 mmHg 24%
    09:00 +30°C° 0 mm 3 mps 736 mmHg 20%
    10:00 +34°C° 0 mm 3 mps 736 mmHg 16%
    11:00 +35°C° 0 mm 3 mps 735 mmHg 15%
    12:00 +36°C° 0 mm 3 mps 735 mmHg 14%
    13:00 +37°C° 0 mm 4 mps 735 mmHg 13%
    14:00 +37°C° 0 mm 4 mps 734 mmHg 13%
    15:00 +37°C° 0 mm 4 mps 734 mmHg 13%
    16:00 +37°C° 0 mm 4 mps 734 mmHg 13%
    17:00 +35°C° 0 mm 4 mps 734 mmHg 15%
    18:00 +33°C° 0 mm 3 mps 735 mmHg 17%
    19:00 +30°C° 0 mm 2 mps 735 mmHg 19%
    20:00 +30°C° 0 mm 2 mps 735 mmHg 20%
    21:00 +30°C° 0 mm 2 mps 735 mmHg 21%
    22:00 +29°C° 0 mm 2 mps 735 mmHg 21%
    23:00 +29°C° 0 mm 2 mps 735 mmHg 22%

    27 October, Saturday

    Time Temperature Precipitation Wind Pressure Humidity
    00:00 +29°C° 0 mm 3 mps 735 mmHg 22%
    01:00 +28°C° 0 mm 3 mps 735 mmHg 22%
    02:00 +27°C° 0 mm 4 mps 735 mmHg 27%
    03:00 +27°C° 0 mm 5 mps 736 mmHg 31%
    04:00 +26°C° 0 mm 6 mps 736 mmHg 36%
    05:00 +25°C° 0 mm 5 mps 737 mmHg 38%
    06:00 +25°C° 0 mm 5 mps 737 mmHg 41%
    07:00 +23°C° 0 mm 5 mps 738 mmHg 43%
    08:00 +25°C° 0 mm 5 mps 739 mmHg 43%
    09:00 +26°C° 0 mm 6 mps 740 mmHg 43%
    10:00 +26°C° 0 mm 7 mps 741 mmHg 43%
    11:00 +26°C° 0 mm 7 mps 742 mmHg 47%
    12:00 +26°C° 0 mm 8 mps 742 mmHg 51%
    13:00 +24°C° 0 mm 8 mps 743 mmHg 55%
    14:00 +23°C° 0.1 mm 8 mps 743 mmHg 59%
    15:00 +22°C° 0.1 mm 7 mps 744 mmHg 63%
    16:00 +21°C° 0.1 mm 7 mps 745 mmHg 67%
    17:00 +20°C° 0 mm 6 mps 746 mmHg 66%
    18:00 +20°C° 0 mm 6 mps 747 mmHg 65%
    19:00 +19°C° 0 mm 5 mps 747 mmHg 64%
    20:00 +19°C° 0 mm 5 mps 748 mmHg 63%
    21:00 +19°C° 0 mm 4 mps 748 mmHg 61%
    22:00 +18°C° 0 mm 3 mps 749 mmHg 60%
    23:00 +18°C° 0 mm 3 mps 749 mmHg 59%

    28 October, Sunday

    Time Temperature Precipitation Wind Pressure Humidity
    00:00 +17°C° 0 mm 2 mps 749 mmHg 58%
    01:00 +17°C° 0 mm 2 mps 749 mmHg 57%
    02:00 +17°C° 0 mm 2 mps 749 mmHg 57%
    03:00 +16°C° 0 mm 2 mps 749 mmHg 57%
    04:00 +16°C° 0 mm 1 mps 749 mmHg 57%
    05:00 +16°C° 0 mm 2 mps 750 mmHg 57%
    06:00 +16°C° 0 mm 2 mps 750 mmHg 57%
    07:00 +16°C° 0 mm 2 mps 750 mmHg 57%
    08:00 +17°C° 0 mm 3 mps 750 mmHg 54%
    09:00 +18°C° 0 mm 4 mps 750 mmHg 50%
    10:00 +19°C° 0 mm 4 mps 750 mmHg 47%
    11:00 +19°C° 0 mm 4 mps 750 mmHg 45%
    12:00 +20°C° 0 mm 4 mps 749 mmHg 42%
    13:00 +21°C° 0 mm 5 mps 749 mmHg 40%
    14:00 +21°C° 0 mm 5 mps 748 mmHg 40%
    15:00 +21°C° 0 mm 5 mps 748 mmHg 40%
    16:00 +21°C° 0 mm 5 mps 748 mmHg 40%
    17:00 +20°C° 0 mm 4 mps 749 mmHg 41%
    18:00 +19°C° 0 mm 4 mps 749 mmHg 43%
    19:00 +18°C° 0 mm 3 mps 749 mmHg 44%
    20:00 +18°C° 0 mm 3 mps 749 mmHg 45%
    21:00 +18°C° 0 mm 3 mps 749 mmHg 45%
    22:00 +17°C° 0 mm 3 mps 750 mmHg 46%
    23:00 +17°C° 0 mm 3 mps 749 mmHg 46%

    29 October, Monday

    Time Temperature Precipitation Wind Pressure Humidity
    00:00 +17°C° 0 mm 3 mps 749 mmHg 47%
    01:00 +16°C° 0 mm 2 mps 749 mmHg 47%
    02:00 +16°C° 0 mm 2 mps 749 mmHg 48%
    03:00 +15°C° 0 mm 2 mps 749 mmHg 48%
    04:00 +15°C° 0 mm 2 mps 749 mmHg 49%
    05:00 +15°C° 0 mm 2 mps 749 mmHg 49%
    06:00 +14°C° 0 mm 3 mps 750 mmHg 48%
    07:00 +14°C° 0 mm 3 mps 750 mmHg 48%
    08:00 +16°C° 0 mm 3 mps 750 mmHg 43%
    09:00 +17°C° 0 mm 3 mps 750 mmHg 39%
    10:00 +19°C° 0 mm 4 mps 750 mmHg 34%
    11:00 +20°C° 0 mm 4 mps 750 mmHg 31%
    12:00 +20°C° 0 mm 4 mps 750 mmHg 29%
    13:00 +21°C° 0 mm 3 mps 750 mmHg 27%
    14:00 +21°C° 0 mm 3 mps 750 mmHg 26%
    15:00 +21°C° 0 mm 3 mps 749 mmHg 26%
    16:00 +21°C° 0 mm 3 mps 749 mmHg 25%
    17:00 +20°C° 0 mm 3 mps 750 mmHg 27%
    18:00 +19°C° 0 mm 3 mps 750 mmHg 28%
    19:00 +18°C° 0 mm 3 mps 750 mmHg 29%
    20:00 +17°C° 0 mm 3 mps 750 mmHg 30%
    21:00 +17°C° 0 mm 3 mps 750 mmHg 31%
    22:00 +16°C° 0 mm 2 mps 750 mmHg 32%
    23:00 +16°C° 0 mm 2 mps 750 mmHg 32%
    Show more